星链-4102 (STARLINK-4102 )

导读

STARLINK-4102是美国SpaceX星链(Starlink)星座的互联网通信卫星,于2022年7月17日由猎鹰9号火箭发射,属于星链4-16组网批次。卫星重约297千克,运行在高度约548千米的近地轨道,倾角53.2°,设计工作寿命约5年。它为全球提供低延迟高速互联网接入服务,是星链万颗巨型星座组网的重要组成部分,助力实现全球覆盖的卫星通信网络。

Basic Information
目录编号:
53143
目录名称:
STARLINK-4102
国际标识:
2022-083M
轨道中心:
EARTH
卫星名称:
星链-4102
卫星全名:
星链-4102 (STARLINK-4102 )
卫星状态:
在轨 (已飞行1431 天)
发射日期:
2022-07-17 UTC
国别 :
美国 (US)
星等 :
--
Orbit Information
数据来源 国际轨道数据 AOE轨道数据
星历时间 2026-06-17T08:01:49+0800
15小时前
查看轨道信息
2026-06-11T03:00:00+0800
6天前
查看轨道信息
半长轴 6916.721km 6917.901km
偏心率 0.0002845 0.000131
轨道倾角 53.162° 53.161°
近地点辐角 137.806° 77.778°
升交点赤经 88.197° 116.109°
平近点角 222.315° 12.449°
近地点 536.616km 538.857km
远地点 540.552km 540.671km
周期 95.414分钟 95.438分钟
每日圈数 15.092197 15.088335
Detailed Information
固有亮度:
5
最大亮度:
2.5
卫星平台:
Starlink v1.5
覆盖范围:
全球
运营商:
太空探索技术公司
运营商所在国:
美国
制造商(研发单位):
太空探索技术公司
制造商所在国:
美国
使用方式:
暂无
Satellite Introduction
星链(Starlink)计划是由太空探索技术公司(SpaceX)提出的一个巨型低轨卫星互联网星座项目,计划在2019年至2024年间在太空搭建由约1.2万颗卫星组成的“星链”网络,其中1584颗将部署在地球上空550千米处的近地轨道,并从2020年开始工作。该卫星仍在工作。
2D Orbit Map
3D Orbit Map
Orbit Altitude Analysis Chart
Orbit Inclination Analysis Chart
Orbit Comprehensive Analysis Chart
View Comprehensive Chart